Location: Gleizolles
(44.4833°N, 6.7667°E)
Time: 13:38:58
(UTC+00:00)

deb Explorer IX - Pass Details

Date: 02 July 2024
Orbit: 510 x 878 km, 38.7° (Epoch: 21 July)

Event Time Altitude Azimuth Distance (km) Brightness Sun altitude
Rises 03:23:03 0° 219° (SW) 2,620 - -5.1°
Exits shadow 03:24:24 - 212° (SSW) 2,153 ? -4.9°
Reaches altitude 10° 03:25:49 10° 200° (SSW) 1,719 ? -4.7°
Maximum altitude 03:28:27 17° 157° (SSE) 1,317 ? -4.3°
Drops below altitude 10° 03:31:06 10° 114° (ESE) 1,731 ? -4.0°
Sets 03:33:54 0° 94° (E) 2,647 ? -3.6°
